#timestamp,LO_Frequency,Hit 
1499612415.9,286047008.1,N
1499612435.7,286047010.7,N
1499612455.5,286047008.0,N
1499612475.3,286047007.8,N
1499612495.2,286047007.8,N
1499612515.0,286047008.6,N
1499612515.9,286047008.6,N
1499612535.7,286047008.0,N
1499612555.6,286047008.3,N
1499612575.4,286047008.8,N
1499612595.2,286047009.2,N
1499612615.1,286047009.2,N
1499612616.0,286047009.2,N
1499612635.8,286047008.7,N
1499612655.6,286047008.8,N
1499612675.5,286047009.2,N
1499612695.3,286047006.1,N
1499612715.1,286047009.1,N
1499612735.9,286047006.1,N
1499612755.7,286047009.0,N
1499612775.5,286047009.1,N
1499612795.3,286047006.2,N
1499612815.1,286047009.1,N
1499612835.9,286047006.1,N
1499612855.7,286047007.9,N
1499612875.5,286047009.0,N
1499612895.4,286047007.5,N
1499612915.2,286047006.4,N
1499612935.0,286047006.5,N
1499612935.9,286047006.5,N
1499612955.8,286047007.3,N
1499612975.6,286047007.1,N
1499612995.4,286047005.1,N
1499613015.3,286047007.1,N
1499613035.1,286047005.7,N
1499613036.0,286047005.7,N
1499613055.8,286047006.0,N
1499613075.7,286047005.0,N
1499613095.5,286047007.6,N
1499613115.3,286047004.9,N
1499613135.1,286047006.9,N
1499613155.9,286047005.0,N
1499613175.7,286047007.1,N
1499613195.5,286047007.1,N
1499613215.4,286047007.3,N
1499613235.2,286047007.0,N
1499613255.0,286047007.3,N
1499613255.9,286047007.3,N
1499613275.8,286047007.3,N
1499613295.6,286047007.4,N
1499613315.4,286047007.1,N
1499613335.3,286047005.2,N
1499613355.1,286047005.0,N
1499613356.0,286047005.0,N
1499613375.8,286047004.6,N
1499613395.7,286047005.4,N
1499613415.5,286047004.9,N
1499613435.3,286047007.4,N
1499613455.2,286047007.4,N
1499613475.9,286047007.5,N
1499613495.7,286047007.4,N
1499613515.6,286047007.0,N
1499613535.4,286047007.2,N
1499613555.2,286047007.5,N
1499613575.0,286047007.0,N
1499613575.9,286047007.0,N
1499613595.8,286047007.3,N
1499613615.6,286047007.0,N
1499613635.4,286047007.6,N
1499613655.3,286047005.2,N
1499613675.1,286047005.1,N
1499613695.8,286047005.4,N
1499613715.7,286047005.7,N
1499613735.5,286047005.8,N
1499613755.3,286047002.9,N
1499613775.2,286047003.2,N
1499613795.9,286047005.7,N
1499613815.7,286047004.8,N
1499613835.6,286047004.9,N
1499613855.4,286047005.4,N
1499613875.2,286047004.9,N
1499613895.1,286047005.0,N
1499613896.0,286047005.0,N
1499613915.8,286047005.4,N
1499613935.6,286047005.0,N
1499613955.5,286047004.6,N
1499613975.3,286047004.9,N
1499613995.1,286047007.4,N
1499614015.8,286047004.6,N
1499614035.7,286047005.0,N
1499614055.5,286047005.8,N
1499614075.3,286047003.8,N
1499614095.2,286047003.2,N
1499614115.9,286047005.3,N
1499614135.7,286047005.3,N
1499614155.6,286047004.7,N
1499614175.4,286047007.6,N
1499614195.2,286047004.7,N
1499614215.1,286047006.8,N
1499614216.0,286047006.8,N
1499614235.8,286047006.1,N
1499614255.6,286047006.8,N
1499614275.5,286047007.6,N
1499614295.3,286047006.8,N
1499614315.1,286047004.9,N
1499614335.9,286047003.6,N
1499614355.7,286047005.6,N
1499614375.5,286047005.1,N
1499614395.3,286047005.1,N
1499614415.2,286047005.3,N
1499614435.0,286047005.5,N
1499614435.9,286047005.5,N
1499614455.7,286047005.2,N
1499614475.6,286047003.2,N
1499614495.4,286047005.5,N
1499614515.2,286047003.7,N
1499614535.1,286047002.9,N
1499614536.0,286047002.9,N
1499614555.8,286047005.9,N
1499614575.6,286047007.1,N
1499614595.5,286047007.6,N
1499614615.3,286047007.3,N
1499614635.1,286047005.0,N
1499614655.9,286047005.1,N
1499614675.7,286047007.5,N
1499614695.5,286047004.9,N
1499614715.3,286047007.1,N
1499614735.2,286047007.3,N
1499614755.0,286047007.0,N
1499614755.9,286047007.0,N
1499614775.7,286047007.3,N
1499614795.6,286047005.8,N
1499614815.4,286047003.1,N
1499614835.2,286047002.9,N
1499614855.1,286047005.2,N
1499614856.0,286047005.2,N
1499614875.8,286047002.9,N
1499614895.6,286047003.2,N
1499614915.5,286047005.3,N
1499614935.3,286047003.7,N
1499614955.1,286047003.5,N
1499614975.9,286047006.0,N
1499614995.7,286047005.8,N
1499615015.5,286047004.1,N
1499615035.4,286047003.1,N
1499615055.2,286047002.9,N
1499615075.0,286047003.8,N
1499615075.9,286047003.8,N
1499615095.8,286047003.7,N
1499615115.6,286047003.0,N
1499615135.4,286047006.0,N
1499615155.2,286047003.3,N
1499615175.1,286047003.6,N
1499615176.0,286047003.6,N
1499615195.8,286047006.0,N
1499615215.6,286047004.2,N
1499615235.5,286047001.4,N
1499615255.3,286047002.0,N
1499615275.1,286047002.5,N
1499615295.9,286046998.6,N
1499615315.7,286046999.9,N
1499615335.5,286047001.1,N
1499615355.4,286047001.1,N
1499615375.2,286046998.7,N
1499615395.0,286046997.1,N
1499615395.9,286046997.1,N
1499615415.8,286047000.8,N
1499615435.6,286047000.0,N
1499615455.4,286046998.2,N
1499615475.3,286047000.5,N
1499615495.1,286047000.4,N
1499615496.0,286047000.4,N
1499615515.8,286047000.3,N
1499615535.7,286046998.7,N
1499615555.5,286046998.7,N
1499615575.3,286046998.9,N
1499615595.1,286046999.2,N
1499615615.9,286046998.8,N
1499615635.7,286046999.3,N
1499615655.5,286046999.2,N
1499615675.4,286046999.4,N
1499615695.2,286046999.4,N
1499615715.0,286046999.5,N
1499615715.9,286046999.5,N
1499615735.8,286046996.5,N
1499615755.6,286046997.0,N
1499615775.4,286046995.4,N
1499615795.3,286046996.9,N
1499615815.1,286046997.0,N
1499615835.8,286046999.6,N
1499615855.7,286046996.5,N
1499615875.5,286046996.7,N
1499615895.3,286046996.8,N
1499615915.2,286046997.2,N
1499615935.9,286046999.2,N
1499615955.7,286046999.1,N
1499615975.6,286046999.0,N
1499615995.4,286046996.7,N
